Temperature
19 20 20 20 21 21 22 22 22 22 22 22 22 23 23 22 22 22 22 22 22 21 21 20 20 19 19 19 19 18 18 18 17 17 17 16 16 15 15 15 14 14 14 14
20 20 20 20 20 21 21 21 21 21 22 23 23 22 23 22 22 22 22 22 22 21 21 20 20 20 19 19 19 19 18 18 17 17 17 16 16 15 15 15 15 14 14 14
20 20 20 20 20 20 21 21 21 21 21 22 22 22 22 22 22 22 22 22 22 21 21 21 20 20 19 19 19 19 18 18 18 17 17 16 16 16 15 15 15 14 14 14
20 20 20 20 20 21 20 21 21 21 21 21 22 22 22 23 22 22 22 21 22 21 21 21 20 20 19 19 19 19 18 18 18 17 17 17 16 16 15 15 15 15 15 14
20 20 20 20 21 21 20 21 21 21 21 21 22 22 23 23 23 23 23 22 21 21 21 20 20 20 19 19 19 19 19 18 18 17 17 16 16 16 16 15 15 15 15 15
20 20 21 21 21 21 20 20 20 20 21 20 22 23 23 24 24 24 23 22 21 21 20 20 20 19 19 20 19 19 19 18 18 17 17 16 16 16 16 15 15 15 15 15
20 20 21 21 20 20 20 20 19 19 20 21 22 22 24 25 25 25 24 22 21 20 20 20 19 19 19 19 19 19 19 18 18 17 17 16 16 16 16 16 15 15 15 15
20 20 21 21 21 21 21 21 20 20 20 21 21 22 24 24 23 23 23 22 21 20 20 19 19 19 19 19 19 19 18 18 18 17 17 17 16 16 16 16 15 15 15 15
21 21 21 21 21 22 20 20 21 21 22 22 22 23 24 23 23 23 22 22 21 20 19 19 19 19 19 19 19 19 18 18 18 17 17 17 16 16 16 16 15 15 15 15
21 21 21 20 20 21 21 21 20 20 21 21 22 23 24 23 23 23 22 22 21 20 19 19 19 19 19 19 19 19 18 18 18 17 17 17 16 16 16 15 15 15 15 15
21 21 20 20 20 20 20 20 21 21 21 22 22 24 26 25 24 24 23 22 21 20 19 19 19 19 19 19 19 19 18 18 18 17 17 17 16 16 16 15 15 15 15 15
21 22 21 21 22 22 22 22 21 21 22 22 23 24 24 24 24 24 23 22 21 20 19 19 19 19 19 19 19 18 18 18 18 17 17 17 16 16 16 15 15 15 15 15
21 21 21 21 21 21 21 21 22 22 22 23 23 24 23 23 24 23 23 22 20 19 19 18 18 19 19 19 19 18 18 18 18 17 17 16 16 16 16 15 15 15 15 15
21 22 22 22 22 22 21 21 21 22 22 23 24 24 25 24 24 23 22 21 20 19 18 18 18 18 19 19 18 18 18 18 18 17 17 16 16 16 16 15 15 15 15 14
22 23 23 23 23 23 23 22 22 22 23 24 25 25 25 25 24 23 22 21 20 19 19 18 18 18 19 19 18 18 18 18 17 17 17 16 16 16 16 15 15 15 14 14
22 22 23 23 23 22 22 23 23 23 23 24 24 24 26 25 24 23 22 21 20 20 19 19 19 18 19 19 19 18 18 18 17 17 17 16 16 16 15 15 15 14 14 14
22 23 23 23 22 22 22 24 23 23 23 24 24 25 25 25 24 23 22 21 21 20 19 19 19 19 19 19 19 18 18 18 17 17 16 16 16 15 15 15 15 14 14 14
23 22 23 23 22 21 24 24 24 24 24 24 25 25 25 25 23 22 22 21 21 21 20 19 19 19 19 19 18 18 18 18 17 17 16 16 16 15 15 15 14 14 14 14
22 22 22 22 22 23 24 24 23 23 24 25 24 25 24 23 22 23 22 21 21 21 20 20 19 19 19 19 18 18 18 17 17 16 16 16 15 15 15 14 14 14 14 13
20 22 22 22 21 22 24 24 23 23 24 25 24 24 24 22 24 25 22 21 21 20 20 19 19 19 19 18 18 18 18 17 17 17 16 16 15 15 15 14 14 14 13 13
20 21 21 22 22 23 24 22 22 23 24 24 24 24 23 23 25 24 22 21 21 20 20 19 19 19 19 19 18 18 17 17 17 17 16 16 15 15 15 14 14 14 13 13
22 22 22 22 22 23 23 22 23 24 23 23 23 23 22 23 22 22 21 21 21 20 20 20 19 19 19 19 18 18 17 17 17 17 16 16 15 15 14 14 14 13 13 13
22 23 23 23 23 23 21 22 21 21 22 22 22 21 21 21 21 20 20 20 20 20 20 19 19 19 19 19 18 18 17 17 17 16 16 16 15 15 14 14 13 13 13 12
22 19 21 22 23 22 20 20 20 20 20 20 20 20 20 20 20 20 20 20 20 19 19 19 18 18 18 18 18 18 17 17 16 16 16 15 15 14 14 13 13 13 12 12
21 20 21 21 22 22 21 20 19 19 20 20 20 20 20 20 20 20 20 20 20 19 19 19 18 18 18 18 18 17 17 17 16 16 15 15 14 14 14 13 13 12 12 12
20 20 21 22 22 22 22 20 19 19 19 19 19 20 19 19 19 20 19 19 19 19 19 18 18 18 18 18 17 17 17 16 16 15 15 14 14 14 13 13 13 12 12 12
Wind_Speed
5 6 7 7 5 2 5 7 8 6 4 6 8 8 9 10 10 11 12 11 11 10 9 8 8 8 8 8 7 8 8 7 6 4 3 3 3 3 3 4 5 5 6 6
7 7 5 4 4 4 6 7 7 6 4 6 8 8 7 9 10 11 12 12 12 11 10 9 9 10 9 9 8 8 8 7 6 3 3 2 3 2 3 2 3 4 5 6
6 4 6 7 7 6 5 6 6 6 5 4 7 7 9 8 8 9 9 10 11 11 12 11 11 10 9 9 9 7 7 7 6 5 3 3 3 2 2 2 3 4 4 5
4 4 7 8 8 7 5 4 5 6 7 5 7 7 10 11 11 11 11 11 12 11 11 11 11 11 10 9 8 8 8 7 6 5 4 3 1 2 2 2 3 3 4 4
4 6 8 8 7 6 3 4 5 5 5 5 8 7 8 11 13 14 13 12 12 12 12 11 11 11 10 9 8 8 7 7 6 5 4 3 2 2 2 2 3 3 4 4
3 4 5 5 4 6 8 7 4 3 4 7 9 8 8 12 16 16 14 13 13 12 11 11 10 10 10 9 8 8 8 8 6 5 5 3 4 3 3 2 3 3 3 3
6 6 5 5 7 8 9 8 5 6 6 6 6 7 6 9 12 15 16 15 13 12 12 12 12 12 11 11 10 9 9 8 7 6 5 4 4 3 3 3 3 2 3 3
7 7 9 8 7 8 11 8 4 4 6 5 6 7 4 5 7 11 13 14 13 13 12 12 12 12 11 12 11 10 10 9 8 7 6 5 4 3 3 3 3 3 3 3
6 5 6 6 4 6 7 6 2 2 3 5 6 5 4 6 9 12 13 14 14 14 13 12 12 12 12 12 11 11 11 10 9 8 7 5 5 4 4 3 3 3 3 3
3 4 7 6 5 3 3 4 4 4 4 5 6 7 7 12 14 14 15 16 15 14 14 13 12 12 11 11 11 10 10 10 9 8 7 5 5 4 3 3 3 3 3 3
6 5 7 8 9 9 7 7 5 4 3 3 4 4 4 11 15 17 17 17 17 16 15 13 12 12 11 11 11 11 10 9 9 8 7 6 5 4 4 3 3 2 3 3
7 4 6 7 4 5 9 8 9 5 3 3 3 1 3 5 11 15 16 16 16 15 14 13 13 13 12 12 11 11 10 10 9 8 7 7 6 5 4 4 3 2 2 2
8 5 6 6 5 7 8 10 11 8 4 5 4 2 4 4 9 13 15 15 15 15 15 14 13 13 13 12 12 11 11 10 9 8 8 7 6 5 4 4 4 3 3 3
7 6 6 5 2 7 10 12 13 12 8 7 8 5 3 5 9 12 15 16 16 16 16 15 14 13 13 12 12 12 11 10 10 9 8 8 7 6 5 4 4 3 3 3
6 6 7 6 3 6 9 12 15 16 14 10 7 8 8 6 9 12 15 16 17 17 17 17 16 14 14 13 12 12 11 10 10 9 9 7 7 6 5 5 4 4 3 3
7 6 6 6 6 8 10 12 15 16 15 15 13 12 8 6 8 12 15 18 19 19 19 18 17 17 16 15 14 13 12 11 11 10 9 8 7 7 6 6 5 5 4 3
7 7 6 6 4 5 10 13 15 15 14 14 15 12 7 7 11 14 16 19 20 20 19 19 18 18 17 16 15 14 13 12 11 10 9 9 8 7 7 6 6 5 4 4
8 8 6 5 5 9 4 1 7 13 14 14 13 11 9 9 9 11 14 18 19 19 19 19 18 17 16 15 15 14 13 13 12 11 10 9 9 8 7 7 6 5 5 4
7 7 5 5 7 7 6 4 6 8 9 11 14 13 9 5 5 9 13 16 17 18 18 17 17 17 16 16 16 15 14 13 12 11 11 10 10 9 8 7 7 5 5 4
5 7 7 6 6 6 3 3 4 5 6 4 8 9 8 9 8 8 11 14 15 14 14 15 16 16 16 16 16 16 15 14 13 12 11 10 10 9 9 8 7 6 5 4
7 7 10 10 9 6 2 4 6 6 2 1 4 5 9 11 8 3 8 11 13 14 15 16 16 16 16 16 17 16 15 14 13 11 11 10 10 9 8 7 6 6 5 5
9 7 8 8 8 6 3 7 6 3 3 3 3 4 7 8 5 3 7 10 13 14 15 16 16 15 15 16 17 16 15 13 12 11 11 10 9 8 8 8 7 6 6 6
7 6 5 6 4 1 3 5 3 4 5 4 4 3 5 5 5 5 7 9 12 14 15 15 15 15 15 16 16 16 14 13 13 12 11 10 10 8 8 8 8 7 6 6
5 2 4 5 6 5 4 6 7 6 6 6 5 4 4 5 5 6 7 9 11 13 14 14 15 15 15 15 15 14 13 13 13 13 12 11 10 9 9 7 7 7 7 6
4 6 5 6 6 5 4 4 5 5 5 5 4 3 4 4 5 6 7 9 10 12 13 14 15 15 15 15 15 13 13 14 13 12 11 10 9 9 8 8 6 7 6 5
6 6 6 5 4 5 4 4 4 4 4 3 2 1 2 4 5 5 6 7 9 11 12 13 13 14 14 14 14 14 14 14 14 12 11 9 8 8 8 7 7 5 6 4
Wind_Direction
173 194 192 183 187 214 185 182 176 160 158 179 178 173 176 180 191 191 186 184 185 183 177 173 173 172 166 166 166 158 158 153 149 147 145 131 112 99 84 66 53 46 39 33
177 199 184 162 171 195 183 177 167 152 159 183 178 180 184 189 198 196 192 188 188 183 178 177 177 176 173 171 173 167 162 161 160 150 136 128 112 97 82 81 74 45 38 32
194 158 171 179 187 189 188 188 174 165 158 175 179 190 191 189 197 193 198 197 195 189 185 177 176 174 174 175 176 169 162 161 161 156 145 143 131 140 131 102 71 46 36 35
198 171 184 193 196 201 188 177 173 172 183 186 204 198 195 188 191 195 193 194 195 191 189 179 176 177 180 176 173 171 165 162 157 163 170 165 150 118 93 78 76 73 50 44
181 184 195 203 198 197 171 152 167 185 195 199 206 209 192 187 198 196 192 191 190 188 187 183 180 179 176 170 168 167 161 159 160 168 162 174 146 119 115 108 90 76 70 56
188 191 212 209 184 181 150 144 140 179 204 212 203 213 199 194 203 194 189 189 187 183 182 180 174 171 168 165 162 161 160 158 159 166 168 164 137 137 129 119 98 91 88 74
188 195 188 180 159 169 180 171 175 187 201 203 186 221 216 185 196 193 188 185 182 178 177 175 172 172 169 166 165 164 162 159 160 164 163 153 141 130 123 118 103 84 84 76
190 188 189 195 202 188 193 202 210 197 188 175 187 221 189 153 183 189 186 181 177 176 178 176 173 171 169 167 166 167 165 160 160 160 154 144 135 128 109 104 97 86 74 67
201 171 161 187 202 192 185 205 249 271 184 190 192 206 199 171 180 182 181 179 178 176 175 174 170 169 168 166 166 167 164 161 160 160 153 147 141 128 119 120 107 92 84 73
219 175 164 166 171 193 217 182 196 220 196 198 194 208 198 180 185 184 184 182 178 175 173 170 167 167 165 163 163 166 165 162 160 160 156 149 145 135 126 122 107 99 91 82
220 196 165 178 198 189 180 193 210 222 251 237 191 189 189 189 186 185 186 183 178 175 173 169 167 164 161 160 162 164 164 161 160 161 158 157 152 149 144 129 118 117 110 110
207 217 185 186 179 213 212 213 212 223 213 250 271 145 105 193 186 185 183 179 177 173 170 167 164 162 162 163 164 165 163 163 163 162 162 163 154 159 154 141 141 139 113 101
180 206 178 170 184 193 211 219 223 236 253 238 243 148 117 171 181 184 182 177 173 172 169 167 166 168 166 165 166 165 166 164 162 164 166 165 162 164 155 144 140 138 122 116
198 226 231 216 201 189 203 208 212 217 230 235 239 259 228 192 186 182 182 179 176 176 174 172 171 171 169 168 169 165 166 165 164 166 170 168 166 162 156 143 146 141 130 120
213 242 240 254 240 211 219 213 209 219 233 248 257 262 259 224 195 186 181 179 178 179 180 179 177 173 171 169 171 167 165 166 167 169 169 168 164 157 152 145 145 141 133 125
220 244 238 238 221 222 235 230 221 226 237 245 260 268 265 234 198 188 185 183 185 186 185 183 180 177 176 173 172 168 168 169 170 170 168 163 166 160 160 154 151 147 141 132
205 230 238 242 203 220 243 234 226 223 226 234 244 251 238 211 201 196 191 190 192 190 187 185 184 182 179 177 174 173 170 168 172 171 168 167 169 165 165 158 156 155 153 143
208 222 237 247 220 244 251 181 225 230 238 236 247 255 244 232 217 208 199 195 195 191 188 187 185 182 179 174 173 169 167 171 174 174 172 171 171 169 167 167 167 167 164 159
220 214 227 237 246 262 265 229 207 221 247 240 240 248 243 209 195 212 206 202 199 193 189 186 184 179 175 174 172 170 171 174 177 177 176 176 176 175 175 177 177 174 172 170
201 221 230 229 242 250 261 140 175 215 249 241 232 236 214 182 210 214 189 196 195 189 184 179 177 176 175 173 172 174 176 179 181 179 177 176 178 178 180 181 180 175 177 179
183 203 223 234 245 255 277 134 168 218 272 355 237 227 197 202 224 187 166 182 185 180 176 172 172 175 175 172 175 180 180 183 178 172 172 174 178 181 180 179 180 180 183 187
207 207 216 222 234 245 139 160 202 289 350 324 275 244 218 222 229 176 166 171 173 172 171 171 172 173 171 173 178 182 184 176 167 167 171 174 178 179 178 179 183 186 187 193
220 229 227 227 243 4 172 220 279 317 305 305 290 268 241 229 217 195 177 170 171 170 170 172 172 170 172 178 183 184 179 169 167 169 173 177 178 181 183 184 186 190 196 207
199 199 223 242 259 266 259 265 273 275 279 298 297 276 234 220 204 186 176 171 171 171 170 171 172 173 176 180 185 184 172 171 173 176 178 180 183 182 185 190 195 198 202 210
200 186 218 244 265 270 262 262 281 282 281 286 286 264 235 209 191 182 177 174 173 172 172 174 178 180 179 178 181 180 173 174 177 179 181 184 186 187 191 193 201 207 211 218
208 208 227 254 283 283 300 340 322 294 288 287 278 255 215 200 187 179 177 173 172 172 173 177 181 182 180 178 180 179 177 178 180 182 185 186 187 190 194 196 200 211 228 211
Height
1520 1520 1519 1518 1518 1519 1518 1520 1521 1522 1523 1524 1525 1527 1529 1533 1535 1537 1539 1542 1544 1547 1550 1552 1554 1556 1557 1559 1561 1562 1563 1563 1564 1564 1565 1564 1564 1563 1563 1561 1560 1559 1558 1557
1520 1519 1518 1519 1520 1520 1519 1521 1523 1524 1523 1523 1525 1527 1528 1531 1533 1534 1536 1539 1542 1545 1548 1550 1552 1555 1557 1559 1560 1562 1563 1564 1564 1564 1565 1565 1564 1564 1563 1562 1562 1561 1560 1558
1516 1517 1519 1520 1521 1521 1520 1521 1522 1524 1525 1523 1526 1530 1528 1529 1531 1533 1535 1537 1540 1543 1546 1549 1551 1554 1556 1558 1560 1562 1563 1564 1564 1564 1565 1565 1565 1564 1564 1564 1563 1562 1560 1559
1516 1517 1519 1519 1520 1519 1523 1521 1522 1524 1526 1528 1526 1533 1525 1524 1528 1531 1533 1535 1538 1541 1544 1547 1549 1552 1555 1557 1559 1561 1562 1563 1564 1564 1565 1566 1566 1566 1565 1565 1564 1563 1562 1560
1516 1517 1518 1519 1518 1519 1521 1521 1523 1524 1525 1528 1524 1526 1522 1521 1524 1525 1529 1532 1536 1539 1542 1545 1548 1550 1553 1556 1558 1560 1561 1562 1563 1564 1564 1565 1566 1566 1565 1565 1564 1564 1563 1562
1515 1517 1516 1515 1517 1519 1521 1524 1526 1526 1527 1535 1523 1524 1522 1515 1516 1519 1525 1529 1533 1536 1540 1543 1546 1548 1551 1554 1556 1558 1560 1561 1562 1563 1564 1565 1565 1565 1566 1565 1565 1565 1564 1563
1516 1515 1515 1517 1519 1521 1520 1527 1535 1538 1537 1530 1519 1521 1514 1506 1510 1514 1520 1525 1530 1534 1537 1540 1543 1546 1549 1552 1555 1557 1559 1561 1562 1563 1565 1565 1566 1566 1566 1566 1566 1566 1566 1565
1515 1517 1513 1514 1514 1517 1518 1520 1530 1535 1532 1526 1522 1518 1507 1507 1511 1514 1518 1523 1527 1532 1535 1538 1541 1544 1547 1550 1553 1556 1558 1560 1561 1563 1564 1565 1565 1566 1566 1566 1566 1566 1566 1566
1509 1512 1510 1512 1513 1513 1518 1518 1518 1520 1518 1521 1516 1509 1505 1508 1510 1513 1517 1521 1525 1529 1533 1536 1539 1543 1546 1549 1552 1555 1557 1559 1561 1562 1564 1565 1565 1566 1566 1566 1566 1566 1566 1566
1504 1509 1510 1513 1514 1515 1514 1514 1520 1522 1526 1525 1516 1510 1503 1504 1506 1510 1514 1518 1522 1527 1531 1534 1537 1541 1544 1548 1551 1554 1556 1558 1560 1562 1563 1564 1565 1565 1565 1566 1566 1566 1566 1566
1503 1506 1512 1512 1512 1513 1517 1518 1516 1517 1516 1518 1518 1507 1490 1493 1498 1504 1509 1514 1519 1524 1528 1532 1535 1539 1543 1546 1549 1552 1554 1557 1559 1561 1562 1563 1564 1565 1565 1566 1566 1566 1566 1566
1501 1502 1507 1507 1506 1506 1508 1509 1511 1517 1515 1511 1509 1503 1492 1493 1496 1501 1506 1512 1517 1522 1526 1530 1533 1537 1541 1544 1547 1550 1553 1555 1557 1559 1561 1562 1563 1564 1565 1565 1565 1566 1566 1566
1500 1501 1507 1512 1513 1510 1508 1507 1507 1506 1508 1508 1509 1502 1493 1494 1497 1501 1505 1510 1515 1520 1524 1527 1531 1535 1539 1542 1545 1548 1551 1554 1556 1558 1559 1561 1562 1563 1564 1564 1564 1565 1565 1565
1499 1495 1499 1505 1499 1498 1503 1504 1504 1505 1507 1504 1500 1495 1490 1492 1495 1499 1504 1508 1513 1517 1521 1525 1528 1532 1536 1540 1543 1546 1549 1552 1554 1556 1558 1560 1561 1562 1563 1563 1564 1564 1565 1565
1497 1493 1491 1490 1491 1493 1495 1497 1500 1500 1496 1497 1491 1490 1486 1487 1491 1496 1501 1505 1510 1514 1518 1521 1525 1529 1533 1537 1541 1544 1547 1550 1552 1554 1556 1558 1559 1560 1561 1562 1562 1563 1563 1564
1493 1491 1490 1491 1490 1492 1493 1491 1493 1494 1492 1491 1490 1488 1482 1485 1489 1493 1498 1502 1505 1509 1513 1518 1522 1526 1530 1533 1537 1541 1544 1547 1550 1553 1555 1556 1558 1559 1560 1561 1561 1562 1562 1563
1489 1489 1491 1490 1490 1493 1494 1484 1485 1487 1485 1485 1487 1482 1481 1484 1486 1489 1492 1496 1500 1504 1509 1513 1517 1522 1526 1530 1535 1539 1542 1545 1548 1551 1552 1554 1556 1557 1558 1559 1560 1560 1561 1561
1485 1487 1487 1489 1493 1501 1480 1475 1477 1479 1479 1479 1478 1477 1479 1481 1484 1487 1489 1492 1496 1500 1505 1509 1514 1519 1523 1528 1532 1536 1540 1543 1546 1548 1550 1552 1554 1555 1556 1557 1558 1559 1559 1560
1485 1486 1488 1489 1492 1487 1477 1474 1476 1478 1477 1473 1474 1475 1477 1480 1483 1484 1485 1488 1492 1496 1500 1505 1510 1515 1520 1524 1529 1533 1537 1540 1543 1545 1547 1549 1551 1553 1554 1555 1556 1557 1557 1558
1487 1485 1486 1489 1493 1492 1476 1472 1474 1477 1476 1469 1471 1472 1475 1479 1478 1477 1481 1484 1488 1493 1498 1502 1507 1512 1517 1521 1525 1530 1533 1537 1539 1542 1544 1547 1549 1550 1552 1553 1554 1555 1555 1556
1485 1486 1486 1485 1486 1477 1469 1473 1475 1480 1474 1469 1470 1471 1472 1474 1473 1475 1477 1481 1484 1489 1494 1499 1503 1508 1512 1517 1522 1526 1530 1533 1536 1539 1542 1544 1546 1547 1549 1550 1551 1552 1553 1553
1474 1478 1480 1480 1484 1480 1470 1472 1472 1470 1469 1469 1469 1470 1471 1471 1473 1474 1476 1478 1482 1486 1490 1495 1499 1504 1509 1513 1518 1522 1526 1529 1533 1536 1538 1540 1543 1544 1546 1547 1548 1549 1550 1550
1470 1469 1470 1471 1471 1469 1470 1470 1470 1470 1470 1469 1469 1469 1470 1470 1471 1472 1474 1477 1480 1483 1487 1492 1496 1501 1505 1510 1514 1519 1522 1526 1529 1532 1535 1537 1539 1541 1543 1544 1545 1546 1547 1547
1468 1473 1471 1470 1466 1468 1469 1469 1469 1469 1469 1469 1468 1468 1468 1469 1470 1471 1473 1475 1478 1481 1485 1489 1493 1497 1501 1506 1510 1515 1519 1522 1526 1528 1531 1533 1536 1537 1539 1540 1541 1542 1543 1544
1466 1470 1469 1467 1465 1466 1466 1467 1467 1466 1466 1466 1466 1466 1466 1467 1468 1469 1471 1473 1476 1479 1482 1486 1490 1494 1498 1502 1507 1511 1515 1518 1522 1525 1527 1529 1531 1533 1534 1536 1537 1538 1539 1540
1466 1466 1466 1464 1464 1465 1465 1465 1465 1464 1464 1464 1464 1464 1465 1466 1467 1468 1470 1472 1474 1477 1480 1483 1487 1491 1495 1499 1503 1507 1511 1514 1517 1520 1523 1525 1527 1529 1530 1531 1532 1533 1535 1535